Location: Antioch Church
(34.9543°N, 88.5145°W)
Time: 13:11:25
(UTC+00:00)

SJ-12 - Pass Details

Date: 11 December 2019
Orbit: 568 x 586 km, 97.6° (Epoch: 26 January)

Event Time Altitude Azimuth Distance (km) Brightness Sun altitude
Rises 10:53:45 0° 15° (NNE) 2,804 7.5 -23.5°
Reaches altitude 10° 10:55:56 10° 18° (NNE) 1,898 6.6 -23.0°
Maximum altitude 11:00:02 66° 101° (E) 633 4.2 -22.2°
Drops below altitude 10° 11:04:04 10° 184° (S) 1,873 6.6 -21.4°
Sets 11:06:12 0° 187° (S) 2,764 7.5 -21.0°
